Time,TemperatureF,DewpointF,PressureIn,WindDirection,WindDirectionDegrees,WindSpeedMPH,WindSpeedGustMPH,Humidity,HourlyPrecipIn,Conditions,Clouds,dailyrainin,SoftwareType,DateUTC
2013-06-28 01:33:00,68.0,67.0,29.65,SE,140,18.0,20.0,96,-99.99,,,-99.99,,2013-06-28 05:33:00,
2013-06-28 01:43:00,68.0,67.0,29.65,SSE,150,22.0,-999.0,96,-99.99,,,-99.99,,2013-06-28 05:43:00,
2013-06-28 01:52:00,68.0,67.0,29.65,SSE,150,22.0,-999.0,96,-99.99,,,-99.99,,2013-06-28 05:52:00,
2013-06-28 02:01:00,68.0,67.0,29.65,SSE,160,18.0,21.0,96,-99.99,,,-99.99,,2013-06-28 06:01:00,
2013-06-28 02:11:00,68.0,67.0,29.64,SSE,160,18.0,21.0,96,-99.99,,,-99.99,,2013-06-28 06:11:00,
2013-06-28 02:33:00,68.0,67.0,29.64,SSE,160,18.0,21.0,96,-99.99,,,-99.99,,2013-06-28 06:33:00,
2013-06-28 02:42:00,67.0,67.0,29.62,South,170,15.0,17.0,96,-99.99,,,-99.99,,2013-06-28 06:42:00,
2013-06-28 02:52:00,67.0,66.0,29.62,South,180,14.0,15.0,96,-99.99,,,-99.99,,2013-06-28 06:52:00,
2013-06-28 03:01:00,67.0,66.0,29.62,South,180,14.0,15.0,96,-99.99,,,-99.99,,2013-06-28 07:01:00,
2013-06-28 03:11:00,67.0,67.0,29.61,South,190,15.0,16.0,96,-99.99,,,-99.99,,2013-06-28 07:11:00,
2013-06-28 03:22:00,67.0,67.0,29.61,South,190,15.0,16.0,96,-99.99,,,-99.99,,2013-06-28 07:22:00,
2013-06-28 03:33:00,69.0,68.0,29.61,South,190,20.0,21.0,96,-99.99,,,-99.99,,2013-06-28 07:33:00,
2013-06-28 03:42:00,68.0,67.0,29.61,South,190,20.0,21.0,96,-99.99,,,-99.99,,2013-06-28 07:42:00,
2013-06-28 03:52:00,68.0,67.0,29.61,South,190,17.0,18.0,96,-99.99,,,-99.99,,2013-06-28 07:52:00,
2013-06-28 04:01:00,68.0,67.0,29.61,South,190,17.0,18.0,96,-99.99,,,-99.99,,2013-06-28 08:01:00,
2013-06-28 04:11:00,68.0,67.0,29.61,South,190,17.0,18.0,96,-99.99,,,-99.99,,2013-06-28 08:11:00,
2013-06-28 04:21:00,67.0,66.0,29.59,SSE,160,14.0,14.0,96,-99.99,,,-99.99,,2013-06-28 08:21:00,
2013-06-28 04:43:00,67.0,66.0,29.59,South,170,16.0,17.0,96,-99.99,,,-99.99,,2013-06-28 08:43:00,
2013-06-28 04:52:00,67.0,66.0,29.59,South,180,20.0,21.0,96,-99.99,,,-99.99,,2013-06-28 08:52:00,
2013-06-28 05:02:00,67.0,66.0,29.59,South,180,20.0,21.0,96,-99.99,,,-99.99,,2013-06-28 09:02:00,
2013-06-28 05:11:00,67.0,67.0,29.58,South,180,17.0,18.0,97,-99.99,,,-99.99,,2013-06-28 09:11:00,
2013-06-28 05:33:00,67.0,67.0,29.58,South,180,17.0,18.0,96,-99.99,,,-99.99,,2013-06-28 09:33:00,
2013-06-28 05:42:00,68.0,67.0,29.58,South,190,16.0,17.0,96,-99.99,,,-99.99,,2013-06-28 09:42:00,
2013-06-28 05:52:00,68.0,67.0,29.57,South,180,16.0,17.0,97,-99.99,,,-99.99,,2013-06-28 09:52:00,
2013-06-28 06:02:00,68.0,67.0,29.57,South,180,16.0,17.0,97,-99.99,,,-99.99,,2013-06-28 10:02:00,
2013-06-28 06:11:00,68.0,67.0,29.57,South,180,16.0,17.0,97,-99.99,,,-99.99,,2013-06-28 10:11:00,
2013-06-28 06:22:00,68.0,67.0,29.57,South,190,16.0,20.0,96,-99.99,,,-99.99,,2013-06-28 10:22:00,
2013-06-28 06:33:00,68.0,67.0,29.57,South,180,17.0,18.0,97,-99.99,,,-99.99,,2013-06-28 10:33:00,
2013-06-28 06:52:00,67.0,66.0,29.56,South,180,13.0,14.0,97,-99.99,,,-99.99,,2013-06-28 10:52:00,
2013-06-28 07:01:00,67.0,66.0,29.56,South,180,13.0,14.0,97,-99.99,,,-99.99,,2013-06-28 11:01:00,
2013-06-28 07:11:00,67.0,66.0,29.56,South,180,13.0,14.0,97,-99.99,,,-99.99,,2013-06-28 11:11:00,
2013-06-28 07:21:00,68.0,67.0,29.56,South,190,14.0,16.0,96,-99.99,,,-99.99,,2013-06-28 11:21:00,
2013-06-28 07:34:00,68.0,67.0,29.56,South,190,15.0,16.0,96,-99.99,,,-99.99,,2013-06-28 11:34:00,
2013-06-28 07:42:00,69.0,68.0,29.57,South,190,20.0,21.0,96,-99.99,,,-99.99,,2013-06-28 11:42:00,
2013-06-28 08:01:00,69.0,68.0,29.57,South,190,18.0,21.0,96,-99.99,,,-99.99,,2013-06-28 12:01:00,
2013-06-28 08:11:00,69.0,68.0,29.57,South,190,18.0,21.0,96,-99.99,,,-99.99,,2013-06-28 12:11:00,
2013-06-28 08:22:00,68.0,68.0,29.56,SSW,200,17.0,20.0,97,-99.99,,,-99.99,,2013-06-28 12:22:00,
2013-06-28 08:33:00,69.0,68.0,29.56,SSW,200,18.0,20.0,96,-99.99,,,-99.99,,2013-06-28 12:33:00,
2013-06-28 08:43:00,68.0,67.0,29.56,SSW,200,20.0,21.0,96,-99.99,,,-99.99,,2013-06-28 12:43:00,
2013-06-28 08:52:00,68.0,67.0,29.56,SSW,200,17.0,18.0,96,-99.99,,,-99.99,,2013-06-28 12:52:00,
2013-06-28 09:01:00,68.0,67.0,29.56,SSW,200,17.0,18.0,96,-99.99,,,-99.99,,2013-06-28 13:01:00,
2013-06-28 09:11:00,68.0,67.0,29.56,SSW,200,17.0,18.0,96,-99.99,,,-99.99,,2013-06-28 13:11:00,
2013-06-28 09:23:00,68.0,67.0,29.56,SSW,200,17.0,18.0,96,-99.99,,,-99.99,,2013-06-28 13:23:00,
2013-06-28 09:33:00,68.0,67.0,29.55,SSW,200,16.0,17.0,96,-99.99,,,-99.99,,2013-06-28 13:33:00,
2013-06-28 09:43:00,69.0,68.0,29.54,SSW,200,16.0,17.0,96,-99.99,,,-99.99,,2013-06-28 13:43:00,
2013-06-28 09:53:00,69.0,68.0,29.54,SSW,200,16.0,17.0,96,-99.99,,,-99.99,,2013-06-28 13:53:00,
2013-06-28 10:01:00,69.0,68.0,29.54,SSW,200,16.0,17.0,96,-99.99,,,-99.99,,2013-06-28 14:01:00,
2013-06-28 10:11:00,69.0,68.0,29.54,South,190,16.0,17.0,96,-99.99,,,-99.99,,2013-06-28 14:11:00,
2013-06-28 10:22:00,69.0,68.0,29.54,South,190,16.0,17.0,96,-99.99,,,-99.99,,2013-06-28 14:22:00,
2013-06-28 10:44:00,70.0,68.0,29.53,South,180,16.0,16.0,94,-99.99,,,-99.99,,2013-06-28 14:44:00,
2013-06-28 10:53:00,67.0,66.0,29.53,South,170,15.0,17.0,95,-99.99,,,-99.99,,2013-06-28 14:53:00,
2013-06-28 11:01:00,67.0,66.0,29.53,South,170,15.0,17.0,95,-99.99,,,-99.99,,2013-06-28 15:01:00,
2013-06-28 11:11:00,67.0,66.0,29.53,South,170,15.0,17.0,95,-99.99,,,-99.99,,2013-06-28 15:11:00,
2013-06-28 11:33:00,67.0,66.0,29.54,South,180,12.0,13.0,97,-99.99,,,-99.99,,2013-06-28 15:33:00,
2013-06-28 11:52:00,68.0,67.0,29.54,South,180,15.0,16.0,96,-99.99,,,-99.99,,2013-06-28 15:52:00,
2013-06-28 12:01:00,68.0,67.0,29.54,South,180,15.0,16.0,96,-99.99,,,-99.99,,2013-06-28 16:01:00,
2013-06-28 12:11:00,68.0,67.0,29.54,South,180,15.0,16.0,96,-99.99,,,-99.99,,2013-06-28 16:11:00,
2013-06-28 12:24:00,69.0,68.0,29.54,South,180,16.0,17.0,96,-99.99,,,-99.99,,2013-06-28 16:24:00,
2013-06-28 12:33:00,69.0,68.0,29.54,South,180,16.0,17.0,96,-99.99,,,-99.99,,2013-06-28 16:33:00,
2013-06-28 12:43:00,69.0,67.0,29.54,South,180,17.0,17.0,94,-99.99,,,-99.99,,2013-06-28 16:43:00,
2013-06-28 12:53:00,69.0,67.0,29.54,South,180,17.0,17.0,94,-99.99,,,-99.99,,2013-06-28 16:53:00,
2013-06-28 13:02:00,69.0,67.0,29.54,South,180,17.0,17.0,94,-99.99,,,-99.99,,2013-06-28 17:02:00,
2013-06-28 13:11:00,69.0,68.0,29.54,South,180,18.0,18.0,95,-99.99,,,-99.99,,2013-06-28 17:11:00,
2013-06-28 13:22:00,68.0,66.0,29.54,South,170,18.0,21.0,94,-99.99,,,-99.99,,2013-06-28 17:22:00,
2013-06-28 13:33:00,68.0,67.0,29.54,South,180,20.0,21.0,95,-99.99,,,-99.99,,2013-06-28 17:33:00,
2013-06-28 13:44:00,68.0,67.0,29.54,South,180,20.0,21.0,95,-99.99,,,-99.99,,2013-06-28 17:44:00,
2013-06-28 13:52:00,68.0,67.0,29.54,South,180,20.0,21.0,95,-99.99,,,-99.99,,2013-06-28 17:52:00,
2013-06-28 14:01:00,68.0,67.0,29.53,South,170,20.0,21.0,94,-99.99,,,-99.99,,2013-06-28 18:01:00,
2013-06-28 14:11:00,68.0,67.0,29.53,South,170,20.0,21.0,94,-99.99,,,-99.99,,2013-06-28 18:11:00,
2013-06-28 14:33:00,69.0,67.0,29.54,South,180,17.0,18.0,95,-99.99,,,-99.99,,2013-06-28 18:33:00,
2013-06-28 14:52:00,70.0,67.0,29.53,South,190,16.0,17.0,90,-99.99,,,-99.99,,2013-06-28 18:52:00,
2013-06-28 15:01:00,70.0,67.0,29.53,South,190,16.0,17.0,90,-99.99,,,-99.99,,2013-06-28 19:01:00,
2013-06-28 15:11:00,70.0,67.0,29.53,South,190,16.0,17.0,90,-99.99,,,-99.99,,2013-06-28 19:11:00,
2013-06-28 15:22:00,69.0,66.0,29.53,South,180,16.0,18.0,91,-99.99,,,-99.99,,2013-06-28 19:22:00,
2013-06-28 15:32:00,69.0,66.0,29.53,South,180,16.0,18.0,91,-99.99,,,-99.99,,2013-06-28 19:32:00,
2013-06-28 15:42:00,70.0,67.0,29.51,SSW,200,23.0,-999.0,91,-99.99,,,-99.99,,2013-06-28 19:42:00,
2013-06-28 15:53:00,70.0,67.0,29.51,SSW,200,23.0,-999.0,91,-99.99,,,-99.99,,2013-06-28 19:53:00,
2013-06-28 16:01:00,70.0,67.0,29.51,SSW,200,23.0,-999.0,91,-99.99,,,-99.99,,2013-06-28 20:01:00,
2013-06-28 16:11:00,70.0,67.0,29.51,SSW,200,23.0,-999.0,91,-99.99,,,-99.99,,2013-06-28 20:11:00,
2013-06-28 16:33:00,70.0,67.0,29.51,SSW,210,20.0,21.0,91,-99.99,,,-99.99,,2013-06-28 20:33:00,
2013-06-28 16:52:00,70.0,67.0,29.51,SSW,210,14.0,15.0,90,-99.99,,,-99.99,,2013-06-28 20:52:00,
2013-06-28 17:01:00,70.0,67.0,29.51,SSW,210,14.0,15.0,90,-99.99,,,-99.99,,2013-06-28 21:01:00,
2013-06-28 17:11:00,70.0,67.0,29.51,SSW,210,14.0,15.0,90,-99.99,,,-99.99,,2013-06-28 21:11:00,
2013-06-28 17:23:00,72.0,67.0,29.52,South,190,13.0,15.0,85,-99.99,,,-99.99,,2013-06-28 21:23:00,
2013-06-28 17:33:00,72.0,67.0,29.52,SSW,200,12.0,13.0,85,-99.99,,,-99.99,,2013-06-28 21:33:00,
2013-06-28 17:43:00,72.0,67.0,29.52,SSW,200,12.0,13.0,85,-99.99,,,-99.99,,2013-06-28 21:43:00,
2013-06-28 17:52:00,69.0,65.0,29.52,South,170,9.0,12.0,88,-99.99,,,-99.99,,2013-06-28 21:52:00,
2013-06-28 18:01:00,69.0,66.0,29.52,South,190,7.0,8.0,88,-99.99,,,-99.99,,2013-06-28 22:01:00,
2013-06-28 18:11:00,69.0,66.0,29.52,South,190,7.0,8.0,88,-99.99,,,-99.99,,2013-06-28 22:11:00,
2013-06-28 18:22:00,67.0,65.0,29.52,South,180,12.0,16.0,91,-99.99,,,-99.99,,2013-06-28 22:22:00,
2013-06-28 18:30:00,68.0,67.0,29.52,South,190,15.0,17.0,93,-99.99,,,-99.99,,2013-06-28 22:30:00,
2013-06-28 18:33:00,67.0,65.0,29.52,South,180,13.0,14.0,94,-99.99,,,-99.99,,2013-06-28 22:33:00,
2013-06-28 18:42:00,69.0,67.0,29.52,South,190,15.0,17.0,95,-99.99,,,-99.99,,2013-06-28 22:42:00,
2013-06-28 18:52:00,69.0,67.0,29.52,South,190,15.0,17.0,95,-99.99,,,-99.99,,2013-06-28 22:52:00,
2013-06-28 19:01:00,69.0,67.0,29.52,South,190,15.0,17.0,95,-99.99,,,-99.99,,2013-06-28 23:01:00,
2013-06-28 19:11:00,68.0,67.0,29.52,South,190,15.0,17.0,93,-99.99,,,-99.99,,2013-06-28 23:11:00,
2013-06-28 19:23:00,68.0,67.0,29.52,South,190,15.0,17.0,93,-99.99,,,-99.99,,2013-06-28 23:23:00,
2013-06-28 19:30:00,68.0,67.0,29.52,North,0,0.0,1.0,97,-99.99,,,-99.99,,2013-06-28 23:30:00,
2013-06-28 19:53:00,68.0,67.0,29.52,SW,220,9.0,13.0,97,-99.99,,,-99.99,,2013-06-28 23:53:00,
2013-06-28 20:01:00,68.0,67.0,29.52,SW,220,9.0,13.0,97,-99.99,,,-99.99,,2013-06-29 00:01:00,
2013-06-28 20:11:00,68.0,67.0,29.52,North,0,0.0,1.0,97,-99.99,,,-99.99,,2013-06-29 00:11:00,
2013-06-28 20:22:00,68.0,67.0,29.52,North,0,0.0,1.0,97,-99.99,,,-99.99,,2013-06-29 00:22:00,